HAIYANG-1B

Last updated on Thu Nov 06 2025 00:02:29 GMT+0000 (Coordinated Universal Time)

1 31113U 07010A 25308.90555618 .00000126 00000+0 63524-4 0 9996 2 31113 98.3287 294.7522 0014167 142.1674 218.0509 14.30945665968554
UTC large
Height (km)
Speed (km/s)
/
Latitude / Longitude
Inclination (degrees)
Orbital Period (minutes)
Azimuth
Elevation
Range (km)
Doppler Factor

Next 0 passes for location: London (51.5072 / 0.1276)

Sorry there are no passes over London.